HAISHAO 1

导读 | 豆包AI

HAISHAO 1即海哨一号,是中国研制发射的卫星。北京时间2024年12月4日12时46分,我国在西昌卫星发射中心使用快舟一号甲运载火箭,将海哨一号卫星送入预定轨道,发射任务取得圆满成功,该卫星后续将按计划开展在轨工作,助力相关领域探索应用。

Basic Information
目录编号:
62190
目录名称:
HAISHAO 1
国际标识:
2024-228A
轨道中心:
EARTH
卫星名称:
HAISHAO 1
卫星全名:
HAISHAO 1
卫星状态:
在轨 (已飞行537 天)
发射日期:
2024-12-04 UTC
国别 :
中国 (CN)
星等 :
--
Orbit Information
数据来源 国际轨道数据
星历时间: 2026-05-24T12:41:14+0800
20小时前
查看轨道信息
半长轴: 6751.065km
偏心率: 0.000073
轨道倾角: 42.979°
近地点辐角 34.405°
升交点赤经 148.782°
平近点角 325.686°
近地点: 372.435km
远地点: 373.421km
周期: 92.006分钟
每日圈数: 15.651081
Detailed Information
使用方式:
暂无
2D Orbit Map
3D Orbit Map
Orbit Altitude Analysis Chart
Orbit Inclination Analysis Chart
Orbit Comprehensive Analysis Chart
View Comprehensive Chart